nws-alerts: Checking more than four warning/county codes can delay the loading of your pages. You should use a cron job to get the data.
EllijayWeather Station Historical Data
Daily Summary for July 23, 2019 Units:  English    Metric   Both
Daily Weekly Monthly Yearly Custom
  High: Low: Average:
Temperature: 75.9 °F 63.1 °F 71.3 °F
Dew Point: 71.8 °F 61.7 °F 68.1 °F
Humidity: 99% 70% 90%
Wind Speed: 8.1mph 0mph 0.5mph
Wind Gust: 13mph - -
Wind- - SSW
Pressure: 29.99 in 29.88 in -
Precipitation: 0.84 in    
Historical Graphs
 
 
Tabular Data for July 23, 2019
Time Temperature Dew Point Pressure Wind Wind Speed Wind Gust Humidity Rainfall Rate (Hourly) solar
00:04 72.7 °F 71.2 °F 29.92 in Calm     95% 0 in meteobridge W/m2
00:09 72.7 °F 71.4 °F 29.93 in Calm   1 mph 96% 0 in meteobridge W/m2
00:14 72.9 °F 71.6 °F 29.93 in Calm     96% 0 in meteobridge W/m2
00:19 72.9 °F 71.4 °F 29.93 in Calm     95% 0 in meteobridge W/m2
00:24 72.9 °F 71.4 °F 29.93 in Calm   2 mph 95% 0 in meteobridge W/m2
00:29 72.9 °F 71.4 °F 29.93 in Calm     95% 0 in meteobridge W/m2
00:34 72.9 °F 71.1 °F 29.93 in Calm     94% 0 in meteobridge W/m2
00:39 72.7 °F 70.9 °F 29.93 in Calm   4 mph 94% 0 in meteobridge W/m2
00:44 72.7 °F 71.2 °F 29.93 in Calm     95% 0.03 in meteobridge W/m2
00:49 72.5 °F 71.1 °F 29.92 in NNE 0.9 mph 1 mph 95% 0.03 in meteobridge W/m2
00:54 72.3 °F 70.9 °F 29.92 in Calm     95% 0.03 in meteobridge W/m2
00:59 72.1 °F 70.7 °F 29.92 in Calm     95% 0.03 in meteobridge W/m2
01:04 72.1 °F 70.9 °F 29.91 in Calm     96% 0.03 in meteobridge W/m2
01:09 72 °F 70.7 °F 29.91 in Calm     96% 0.03 in meteobridge W/m2
01:14 71.8 °F 70.5 °F 29.91 in Calm     96% 0.03 in meteobridge W/m2
01:19 71.8 °F 70.5 °F 29.91 in Calm     96% 0.03 in meteobridge W/m2
01:24 71.8 °F 70.9 °F 29.91 in Calm     97% 0.07 in meteobridge W/m2
01:29 71.8 °F 70.9 °F 29.91 in Calm     97% 0.1 in meteobridge W/m2
01:34 71.6 °F 70.7 °F 29.91 in Calm     97% 0.12 in meteobridge W/m2
01:39 71.4 °F 70.5 °F 29.90 in Calm     97% 0.12 in meteobridge W/m2
01:44 71.4 °F 70.9 °F 29.91 in Calm     98% 0.11 in meteobridge W/m2
01:49 71.4 °F 70.9 °F 29.91 in Calm     98% 0.17 in meteobridge W/m2
01:54 71.4 °F 70.9 °F 29.90 in Calm     98% 0.26 in meteobridge W/m2
01:59 71.4 °F 70.9 °F 29.90 in Calm     98% 0.32 in meteobridge W/m2
02:04 71.4 °F 70.9 °F 29.90 in Calm     98% 0.34 in meteobridge W/m2
02:09 71.4 °F 70.9 °F 29.90 in Calm     98% 0.36 in meteobridge W/m2
02:14 71.4 °F 70.9 °F 29.90 in Calm     98% 0.38 in meteobridge W/m2
02:19 71.4 °F 70.9 °F 29.90 in Calm     98% 0.39 in meteobridge W/m2
02:24 71.4 °F 70.9 °F 29.90 in Calm     98% 0.42 in meteobridge W/m2
02:29 71.4 °F 70.9 °F 29.90 in Calm     98% 0.46 in meteobridge W/m2
02:34 71.2 °F 70.7 °F 29.90 in Calm     98% 0.46 in meteobridge W/m2
02:39 71.2 °F 70.7 °F 29.90 in Calm     98% 0.49 in meteobridge W/m2
02:44 71.1 °F 70.5 °F 29.90 in Calm   1 mph 98% 0.5 in meteobridge W/m2
02:49 71.1 °F 70.5 °F 29.90 in Calm     98% 0.46 in meteobridge W/m2
02:54 71.1 °F 70.5 °F 29.90 in Calm     98% 0.39 in meteobridge W/m2
02:59 71.1 °F 70.5 °F 29.90 in Calm     98% 0.35 in meteobridge W/m2
03:04 71.1 °F 70.5 °F 29.89 in Calm     98% 0.34 in meteobridge W/m2
03:09 70.9 °F 70.3 °F 29.89 in Calm     98% 0.33 in meteobridge W/m2
03:14 70.9 °F 70.3 °F 29.89 in Calm     98% 0.31 in meteobridge W/m2
03:19 70.9 °F 70.3 °F 29.89 in Calm     98% 0.29 in meteobridge W/m2
03:24 70.9 °F 70.3 °F 29.89 in Calm     98% 0.23 in meteobridge W/m2
03:29 70.9 °F 70.3 °F 29.89 in Calm     98% 0.15 in meteobridge W/m2
03:34 70.9 °F 70.3 °F 29.88 in Calm     98% 0.14 in meteobridge W/m2
03:39 70.9 °F 70.3 °F 29.88 in Calm     98% 0.12 in meteobridge W/m2
03:44 70.9 °F 70.3 °F 29.88 in Calm     98% 0.09 in meteobridge W/m2
03:49 70.9 °F 70.3 °F 29.88 in Calm     98% 0.07 in meteobridge W/m2
03:54 70.9 °F 70.5 °F 29.89 in Calm     99% 0.05 in meteobridge W/m2
03:59 70.9 °F 70.3 °F 29.88 in Calm     98% 0.03 in meteobridge W/m2
04:04 70.9 °F 70.3 °F 29.88 in Calm     98% 0.02 in meteobridge W/m2
04:09 70.7 °F 70.2 °F 29.88 in Calm     98% 0.01 in meteobridge W/m2
04:14 70.7 °F 70.2 °F 29.88 in Calm     98% 0.01 in meteobridge W/m2
04:19 70.7 °F 70.2 °F 29.88 in Calm     98% 0.01 in meteobridge W/m2
04:24 70.7 °F 70.3 °F 29.88 in Calm     99% 0.01 in meteobridge W/m2
04:29 70.7 °F 70.3 °F 29.88 in Calm     99% 0.01 in meteobridge W/m2
04:34 70.7 °F 70.3 °F 29.88 in Calm     99% 0 in meteobridge W/m2
04:39 70.7 °F 70.3 °F 29.88 in Calm     99% 0 in meteobridge W/m2
04:44 70.7 °F 70.3 °F 29.88 in Calm     99% 0 in meteobridge W/m2
04:49 70.7 °F 70.3 °F 29.88 in Calm     99% 0 in meteobridge W/m2
04:54 70.7 °F 70.3 °F 29.88 in Calm     99% 0 in meteobridge W/m2
04:59 70.7 °F 70.3 °F 29.88 in Calm     99% 0 in meteobridge W/m2
05:04 70.5 °F 70.2 °F 29.88 in Calm     99% 0 in meteobridge W/m2
05:09 70.7 °F 70.3 °F 29.88 in Calm     99% 0 in meteobridge W/m2
05:14 70.7 °F 70.3 °F 29.88 in Calm     99% 0 in meteobridge W/m2
05:19 70.5 °F 70.2 °F 29.88 in Calm     99% 0 in meteobridge W/m2
05:24 70.7 °F 70.3 °F 29.88 in Calm     99% 0 in meteobridge W/m2
05:29 70.5 °F 70.2 °F 29.88 in Calm     99% 0 in meteobridge W/m2
05:34 70.5 °F 70.2 °F 29.88 in Calm     99% 0.01 in meteobridge W/m2
05:39 70.5 °F 70.2 °F 29.88 in Calm     99% 0.01 in meteobridge W/m2
05:44 70.5 °F 70.2 °F 29.88 in Calm     99% 0.01 in meteobridge W/m2
05:49 70.7 °F 70.3 °F 29.88 in Calm     99% 0.01 in meteobridge W/m2
05:54 70.5 °F 70.2 °F 29.88 in Calm     99% 0.01 in meteobridge W/m2
05:59 70.5 °F 70.2 °F 29.88 in Calm     99% 0.01 in meteobridge W/m2
06:04 70.5 °F 70.2 °F 29.88 in Calm     99% 0.01 in meteobridge W/m2
06:09 70.5 °F 70.2 °F 29.88 in Calm     99% 0.01 in meteobridge W/m2
06:14 70.5 °F 70.2 °F 29.89 in Calm     99% 0.01 in meteobridge W/m2
06:19 70.9 °F 70.5 °F 29.89 in Calm     99% 0.01 in meteobridge W/m2
06:24 70.7 °F 70.3 °F 29.89 in Calm     99% 0.01 in meteobridge W/m2
06:29 70.7 °F 70.3 °F 29.89 in Calm     99% 0.01 in meteobridge W/m2
06:34 70.7 °F 70.3 °F 29.89 in Calm     99% 0 in meteobridge W/m2
06:39 70.9 °F 70.5 °F 29.89 in Calm     99% 0 in meteobridge W/m2
06:44 70.7 °F 70.3 °F 29.89 in Calm     99% 0.01 in meteobridge W/m2
06:49 70.7 °F 70.3 °F 29.89 in Calm     99% 0.01 in meteobridge W/m2
06:54 70.7 °F 70.3 °F 29.89 in Calm     99% 0.01 in meteobridge W/m2
06:59 70.9 °F 70.5 °F 29.89 in Calm     99% 0.01 in meteobridge W/m2
07:04 70.9 °F 70.5 °F 29.89 in Calm     99% 0.01 in meteobridge W/m2
07:09 70.9 °F 70.5 °F 29.89 in Calm     99% 0.01 in meteobridge W/m2
07:14 70.9 °F 70.5 °F 29.89 in Calm     99% 0.01 in meteobridge W/m2
07:19 70.9 °F 70.5 °F 29.89 in Calm     99% 0.01 in meteobridge W/m2
07:24 70.9 °F 70.5 °F 29.89 in Calm     99% 0.01 in meteobridge W/m2
07:29 70.9 °F 70.5 °F 29.90 in Calm     99% 0.01 in meteobridge W/m2
07:34 71.1 °F 70.7 °F 29.90 in Calm     99% 0.01 in meteobridge W/m2
07:39 71.1 °F 70.7 °F 29.90 in Calm     99% 0.02 in meteobridge W/m2
07:44 71.1 °F 70.7 °F 29.89 in Calm     99% 0.04 in meteobridge W/m2
07:49 71.1 °F 70.7 °F 29.89 in Calm     99% 0.04 in meteobridge W/m2
07:54 71.1 °F 70.7 °F 29.89 in Calm     99% 0.04 in meteobridge W/m2
07:59 71.1 °F 70.7 °F 29.90 in Calm     99% 0.04 in meteobridge W/m2
08:04 71.1 °F 70.7 °F 29.90 in Calm     99% 0.04 in meteobridge W/m2
08:09 71.1 °F 70.7 °F 29.90 in Calm     99% 0.04 in meteobridge W/m2
08:14 71.1 °F 70.7 °F 29.90 in Calm     99% 0.04 in meteobridge W/m2
08:19 71.1 °F 70.7 °F 29.90 in Calm     99% 0.04 in meteobridge W/m2
08:24 71.2 °F 70.9 °F 29.90 in Calm     99% 0.04 in meteobridge W/m2
08:29 71.1 °F 70.7 °F 29.90 in Calm     99% 0.04 in meteobridge W/m2
08:34 71.1 °F 70.7 °F 29.90 in Calm     99% 0.04 in meteobridge W/m2
08:39 71.2 °F 70.9 °F 29.90 in Calm     99% 0.05 in meteobridge W/m2
08:44 71.1 °F 70.7 °F 29.90 in Calm     99% 0.02 in meteobridge W/m2
08:48 71.2 °F 70.9 °F 29.90 in Calm     99% 0.02 in meteobridge W/m2
08:54 71.2 °F 70.9 °F 29.90 in Calm     99% 0.02 in meteobridge W/m2
08:59 71.2 °F 70.9 °F 29.90 in Calm     99% 0.03 in meteobridge W/m2
09:04 71.1 °F 70.7 °F 29.90 in Calm     99% 0.03 in meteobridge W/m2
09:09 71.2 °F 70.9 °F 29.90 in Calm     99% 0.03 in meteobridge W/m2
09:14 71.1 °F 70.7 °F 29.90 in Calm     99% 0.03 in meteobridge W/m2
09:19 71.2 °F 70.9 °F 29.90 in Calm     99% 0.03 in meteobridge W/m2
09:24 71.2 °F 70.9 °F 29.90 in Calm     99% 0.03 in meteobridge W/m2
09:29 71.2 °F 70.9 °F 29.90 in Calm     99% 0.03 in meteobridge W/m2
09:34 71.2 °F 70.9 °F 29.90 in Calm     99% 0.03 in meteobridge W/m2
09:39 71.2 °F 70.9 °F 29.90 in Calm     99% 0.01 in meteobridge W/m2
09:44 71.4 °F 71.1 °F 29.90 in Calm     99% 0.01 in meteobridge W/m2
09:49 71.4 °F 71.1 °F 29.90 in Calm     99% 0.01 in meteobridge W/m2
09:54 71.4 °F 71.1 °F 29.90 in Calm     99% 0.01 in meteobridge W/m2
09:59 71.6 °F 71.2 °F 29.90 in Calm   1 mph 99% 0 in meteobridge W/m2
10:04 71.6 °F 71.2 °F 29.90 in Calm   1 mph 99% 0 in meteobridge W/m2
10:09 71.4 °F 71.1 °F 29.90 in Calm   2 mph 99% 0 in meteobridge W/m2
10:14 71.4 °F 71.1 °F 29.90 in Calm     99% 0 in meteobridge W/m2
10:19 71.6 °F 71.1 °F 29.90 in Calm     98% 0 in meteobridge W/m2
10:24 71.4 °F 70.9 °F 29.90 in Calm     98% 0 in meteobridge W/m2
10:29 71.6 °F 71.1 °F 29.91 in Calm   1 mph 98% 0 in meteobridge W/m2
10:34 71.4 °F 70.9 °F 29.90 in Calm     98% 0 in meteobridge W/m2
10:39 71.8 °F 71.4 °F 29.90 in Calm     99% 0 in meteobridge W/m2
10:44 71.8 °F 71.2 °F 29.90 in Calm     98% 0 in meteobridge W/m2
10:49 72 °F 71.4 °F 29.90 in Calm     98% 0 in meteobridge W/m2
10:54 72.1 °F 71.6 °F 29.90 in Calm     98% 0 in meteobridge W/m2
10:59 72.1 °F 71.6 °F 29.91 in Calm     98% 0 in meteobridge W/m2
11:04 72.3 °F 71.8 °F 29.90 in Calm     98% 0 in meteobridge W/m2
11:09 72.1 °F 71.6 °F 29.92 in ENE 6 mph 6 mph 98% 0 in meteobridge W/m2
11:14 71.4 °F 69.3 °F 29.91 in Calm   3 mph 93% 0.01 in meteobridge W/m2
11:19 70.7 °F 69.3 °F 29.91 in Calm     95% 0.01 in meteobridge W/m2
11:24 70.3 °F 68.9 °F 29.91 in Calm     95% 0.01 in meteobridge W/m2
11:29 70.2 °F 68.9 °F 29.91 in Calm     96% 0.01 in meteobridge W/m2
11:34 70 °F 68.7 °F 29.91 in Calm     96% 0.01 in meteobridge W/m2
11:39 70.2 °F 68.9 °F 29.91 in Calm     96% 0.01 in meteobridge W/m2
11:44 70.3 °F 69.4 °F 29.90 in Calm     97% 0.01 in meteobridge W/m2
11:49 70.3 °F 68.5 °F 29.90 in Calm   3 mph 94% 0.01 in meteobridge W/m2
11:54 70.7 °F 69.3 °F 29.90 in Calm     95% 0.01 in meteobridge W/m2
11:59 71.1 °F 69.6 °F 29.90 in Calm   2 mph 95% 0.01 in meteobridge W/m2
12:04 71.4 °F 70 °F 29.90 in Calm   2 mph 95% 0.01 in meteobridge W/m2
12:09 72 °F 69.3 °F 29.90 in Calm   3 mph 91% 0.01 in meteobridge W/m2
12:14 72.3 °F 69.3 °F 29.90 in Calm   5 mph 90% 0 in meteobridge W/m2
12:19 72.9 °F 69.4 °F 29.90 in Calm   4 mph 89% 0 in meteobridge W/m2
12:24 72.7 °F 69.3 °F 29.89 in Calm   3 mph 89% 0 in meteobridge W/m2
12:29 72.7 °F 70 °F 29.89 in Calm     91% 0 in meteobridge W/m2
12:34 72.5 °F 69.8 °F 29.89 in Calm   1 mph 91% 0 in meteobridge W/m2
12:39 72.7 °F 68.9 °F 29.89 in Calm   5 mph 88% 0 in meteobridge W/m2
12:44 72.9 °F 69.8 °F 29.89 in Calm   1 mph 90% 0 in meteobridge W/m2
12:49 73.4 °F 70.3 °F 29.89 in Calm     90% 0 in meteobridge W/m2
12:54 74.1 °F 70 °F 29.89 in Calm   6 mph 87% 0.01 in meteobridge W/m2
12:59 74.8 °F 70.3 °F 29.88 in Calm   6 mph 86% 0.01 in meteobridge W/m2
13:04 75.4 °F 69.8 °F 29.88 in West 2 mph 9 mph 83% 0.01 in meteobridge W/m2
13:09 75.9 °F 71.4 °F 29.88 in ENE 0.9 mph 4 mph 86% 0.01 in meteobridge W/m2
13:14 75.9 °F 69.3 °F 29.88 in Calm   4 mph 80% 0.01 in meteobridge W/m2
13:19 75.6 °F 70 °F 29.88 in Calm   6 mph 83% 0.01 in meteobridge W/m2
13:24 75 °F 68 °F 29.88 in West 4.9 mph 8 mph 79% 0.01 in meteobridge W/m2
13:29 75 °F 68 °F 29.88 in Calm   7 mph 79% 0.01 in meteobridge W/m2
13:34 75.4 °F 68.4 °F 29.88 in ENE 2 mph 5 mph 79% 0.01 in meteobridge W/m2
13:39 75.6 °F 68.5 °F 29.89 in WNW 2 mph 4 mph 79% 0.01 in meteobridge W/m2
13:44 75.2 °F 68.5 °F 29.89 in Calm   6 mph 80% 0.01 in meteobridge W/m2
13:49 75.4 °F 68.7 °F 29.88 in Calm   6 mph 80% 0.01 in meteobridge W/m2
13:54 75 °F 67.6 °F 29.89 in ESE 0.9 mph 3 mph 78% 0 in meteobridge W/m2
13:59 75 °F 68.4 °F 29.88 in NE 4 mph 5 mph 80% 0 in meteobridge W/m2
14:04 75.4 °F 69.1 °F 29.89 in NNE 2 mph 4 mph 81% 0 in meteobridge W/m2
14:09 75.7 °F 68.7 °F 29.89 in WNW 8.1 mph 13 mph 79% 0 in meteobridge W/m2
14:14 75.6 °F 68.5 °F 29.89 in NW 2 mph 6 mph 79% 0 in meteobridge W/m2
14:19 75.4 °F 68 °F 29.89 in WNW 2.9 mph 7 mph 78% 0 in meteobridge W/m2
14:24 75.2 °F 67.5 °F 29.89 in WNW 4 mph 5 mph 77% 0 in meteobridge W/m2
14:29 75 °F 68 °F 29.90 in ENE 4 mph 10 mph 79% 0 in meteobridge W/m2
14:34 74.8 °F 67.8 °F 29.90 in WNW 4.9 mph 7 mph 79% 0 in meteobridge W/m2
14:39 73.9 °F 67.5 °F 29.91 in WNW 6 mph 6 mph 80% 0 in meteobridge W/m2
14:44 73.9 °F 68.2 °F 29.91 in WNW 2.9 mph 8 mph 82% 0 in meteobridge W/m2
14:49 73.4 °F 67.3 °F 29.91 in Calm   5 mph 81% 0 in meteobridge W/m2
14:54 73.2 °F 66.7 °F 29.91 in West 2 mph 12 mph 80% 0 in meteobridge W/m2
14:59 72.9 °F 67.1 °F 29.91 in Calm   5 mph 82% 0 in meteobridge W/m2
15:04 72.7 °F 67.3 °F 29.91 in Calm   3 mph 83% 0 in meteobridge W/m2
15:09 72.7 °F 66.9 °F 29.91 in Calm   2 mph 82% 0 in meteobridge W/m2
15:14 72.7 °F 66.9 °F 29.91 in Calm   5 mph 82% 0 in meteobridge W/m2
15:19 72.5 °F 66.7 °F 29.91 in SE 4.9 mph 8 mph 82% 0 in meteobridge W/m2
15:24 72.5 °F 66.4 °F 29.91 in WNW 2.9 mph 7 mph 81% 0 in meteobridge W/m2
15:29 72.7 °F 66.9 °F 29.91 in Calm   4 mph 82% 0 in meteobridge W/m2
15:34 72.7 °F 66.6 °F 29.91 in WNW 2.9 mph 5 mph 81% 0 in meteobridge W/m2
15:39 72.7 °F 66.6 °F 29.91 in Calm   4 mph 81% 0 in meteobridge W/m2
15:44 72.7 °F 66.6 °F 29.91 in NW 2 mph 6 mph 81% 0 in meteobridge W/m2
15:49 72.7 °F 66.9 °F 29.91 in NNE 4 mph 4 mph 82% 0 in meteobridge W/m2
15:54 72.7 °F 66.9 °F 29.91 in West 4.9 mph 6 mph 82% 0 in meteobridge W/m2
15:59 72.9 °F 67.1 °F 29.91 in Calm   6 mph 82% 0 in meteobridge W/m2
16:04 73.2 °F 66.4 °F 29.91 in West 0.9 mph 8 mph 79% 0 in meteobridge W/m2
16:09 73.2 °F 67.1 °F 29.91 in NNW 4.9 mph 8 mph 81% 0 in meteobridge W/m2
16:14 73.2 °F 66.7 °F 29.91 in SW 4.9 mph 5 mph 80% 0 in meteobridge W/m2
16:19 73 °F 66.2 °F 29.91 in WNW 4.9 mph 10 mph 79% 0 in meteobridge W/m2
16:24 72.9 °F 66.7 °F 29.91 in NE 0.9 mph 5 mph 81% 0 in meteobridge W/m2
16:29 73 °F 66.6 °F 29.91 in NE 0.9 mph 3 mph 80% 0 in meteobridge W/m2
16:34 73.6 °F 66.4 °F 29.90 in ENE 2 mph 6 mph 78% 0 in meteobridge W/m2
16:39 73.8 °F 66.9 °F 29.90 in Calm   1 mph 79% 0 in meteobridge W/m2
16:44 73.8 °F 66.4 °F 29.90 in Calm   7 mph 78% 0 in meteobridge W/m2
16:49 73.8 °F 65.7 °F 29.90 in WSW 6 mph 8 mph 76% 0 in meteobridge W/m2
16:54 73.6 °F 65.8 °F 29.91 in West 6 mph 10 mph 77% 0 in meteobridge W/m2
16:59 73.2 °F 65.7 °F 29.90 in NE 2 mph 7 mph 77% 0 in meteobridge W/m2
17:04 73.4 °F 65.7 °F 29.90 in NNE 4.9 mph 5 mph 77% 0 in meteobridge W/m2
17:09 73.6 °F 65.8 °F 29.90 in NNW 2.9 mph 7 mph 77% 0 in meteobridge W/m2
17:14 73.9 °F 66.2 °F 29.91 in Calm   3 mph 77% 0 in meteobridge W/m2
17:19 74.1 °F 66 °F 29.91 in NE 2.9 mph 6 mph 76% 0 in meteobridge W/m2
17:24 74.7 °F 65.8 °F 29.91 in Calm   6 mph 74% 0 in meteobridge W/m2
17:29 75 °F 65.8 °F 29.91 in WNW 4 mph 6 mph 73% 0 in meteobridge W/m2
17:34 75 °F 65.3 °F 29.91 in Calm   5 mph 72% 0 in meteobridge W/m2
17:39 74.8 °F 64.8 °F 29.91 in NNW 2 mph 10 mph 71% 0 in meteobridge W/m2
17:44 74.8 °F 64.8 °F 29.91 in NE 2 mph 7 mph 71% 0 in meteobridge W/m2
17:49 74.8 °F 64.8 °F 29.91 in Calm   2 mph 71% 0 in meteobridge W/m2
17:54 74.7 °F 65.1 °F 29.91 in Calm   5 mph 72% 0 in meteobridge W/m2
17:59 74.7 °F 65.5 °F 29.91 in North 2 mph 4 mph 73% 0 in meteobridge W/m2
18:04 74.7 °F 65.5 °F 29.91 in NE 2 mph 9 mph 73% 0 in meteobridge W/m2
18:09 74.7 °F 66.2 °F 29.91 in Calm     75% 0 in meteobridge W/m2
18:14 74.7 °F 65.8 °F 29.91 in NW 2 mph 3 mph 74% 0 in meteobridge W/m2
18:19 74.8 °F 65.7 °F 29.91 in NW 0.9 mph 4 mph 73% 0 in meteobridge W/m2
18:24 74.7 °F 64.2 °F 29.92 in Calm   3 mph 70% 0 in meteobridge W/m2
18:29 74.5 °F 64.4 °F 29.92 in NW 2 mph 8 mph 71% 0 in meteobridge W/m2
18:34 74.1 °F 64 °F 29.92 in NNE 2 mph 8 mph 71% 0 in meteobridge W/m2
18:39 73.9 °F 64.4 °F 29.92 in NNW 2 mph 5 mph 72% 0 in meteobridge W/m2
18:44 73.9 °F 64.8 °F 29.92 in Calm   1 mph 73% 0 in meteobridge W/m2
18:49 73.8 °F 65.3 °F 29.92 in Calm   1 mph 75% 0 in meteobridge W/m2
18:54 73.4 °F 65.3 °F 29.92 in West 0.9 mph 7 mph 76% 0 in meteobridge W/m2
18:59 73.2 °F 64.4 °F 29.93 in NW 0.9 mph 1 mph 74% 0 in meteobridge W/m2
19:04 73.2 °F 64.8 °F 29.93 in Calm   4 mph 75% 0 in meteobridge W/m2
19:09 73.2 °F 64.8 °F 29.93 in Calm     75% 0 in meteobridge W/m2
19:14 73 °F 64.9 °F 29.93 in Calm     76% 0 in meteobridge W/m2
19:19 73 °F 63.9 °F 29.93 in Calm   3 mph 73% 0 in meteobridge W/m2
19:24 73 °F 64.2 °F 29.93 in Calm   1 mph 74% 0 in meteobridge W/m2
19:29 73 °F 64.2 °F 29.93 in Calm     74% 0 in meteobridge W/m2
19:34 72.7 °F 63.9 °F 29.93 in Calm   5 mph 74% 0 in meteobridge W/m2
19:39 72.5 °F 64.6 °F 29.93 in Calm   2 mph 76% 0 in meteobridge W/m2
19:44 72.3 °F 64.4 °F 29.93 in NNW 0.9 mph 4 mph 76% 0 in meteobridge W/m2
19:49 72.1 °F 64.6 °F 29.93 in Calm   3 mph 77% 0 in meteobridge W/m2
19:54 72 °F 64.8 °F 29.94 in WSW 2 mph 5 mph 78% 0 in meteobridge W/m2
19:59 71.6 °F 64.4 °F 29.94 in Calm   6 mph 78% 0 in meteobridge W/m2
20:04 71.2 °F 64.4 °F 29.94 in WNW 2 mph 4 mph 79% 0 in meteobridge W/m2
20:09 71.2 °F 64 °F 29.94 in Calm     78% 0 in meteobridge W/m2
20:14 71.2 °F 64.4 °F 29.94 in Calm   3 mph 79% 0 in meteobridge W/m2
20:19 71.1 °F 64.2 °F 29.94 in Calm     79% 0 in meteobridge W/m2
20:24 70.9 °F 65.1 °F 29.95 in Calm     82% 0 in meteobridge W/m2
20:29 70.5 °F 64.8 °F 29.95 in Calm   1 mph 82% 0 in meteobridge W/m2
20:34 70.3 °F 64.2 °F 29.95 in Calm     81% 0 in meteobridge W/m2
20:39 70.2 °F 65.5 °F 29.95 in Calm     85% 0 in meteobridge W/m2
20:44 70 °F 64.6 °F 29.95 in Calm     83% 0 in meteobridge W/m2
20:49 69.6 °F 64.9 °F 29.95 in Calm     85% 0 in meteobridge W/m2
20:54 69.1 °F 64 °F 29.95 in Calm     84% 0 in meteobridge W/m2
20:59 68.7 °F 64.4 °F 29.95 in Calm     86% 0 in meteobridge W/m2
21:04 68.4 °F 64.6 °F 29.96 in Calm     88% 0 in meteobridge W/m2
21:09 68 °F 64.6 °F 29.96 in Calm     89% 0 in meteobridge W/m2
21:14 67.6 °F 64.2 °F 29.96 in Calm     89% 0 in meteobridge W/m2
21:19 67.5 °F 64 °F 29.96 in Calm     89% 0 in meteobridge W/m2
21:24 67.1 °F 63.7 °F 29.96 in Calm     89% 0 in meteobridge W/m2
21:29 66.7 °F 63.7 °F 29.96 in Calm     90% 0 in meteobridge W/m2
21:34 66.6 °F 63.5 °F 29.96 in Calm   1 mph 90% 0 in meteobridge W/m2
21:39 66.4 °F 63.7 °F 29.97 in Calm     91% 0 in meteobridge W/m2
21:44 66.2 °F 63.5 °F 29.97 in Calm     91% 0 in meteobridge W/m2
21:49 65.8 °F 63.1 °F 29.97 in Calm   1 mph 91% 0 in meteobridge W/m2
21:54 65.7 °F 63 °F 29.97 in Calm   1 mph 91% 0 in meteobridge W/m2
21:59 65.7 °F 63.3 °F 29.97 in Calm     92% 0 in meteobridge W/m2
22:04 65.5 °F 62.8 °F 29.97 in NE 0.9 mph 1 mph 91% 0 in meteobridge W/m2
22:09 65.3 °F 63.1 °F 29.97 in Calm   1 mph 93% 0 in meteobridge W/m2
22:14 65.1 °F 62.8 °F 29.97 in Calm   1 mph 92% 0 in meteobridge W/m2
22:19 65.1 °F 62.8 °F 29.97 in Calm     92% 0 in meteobridge W/m2
22:24 65.1 °F 62.8 °F 29.98 in Calm     92% 0 in meteobridge W/m2
22:29 65.1 °F 62.8 °F 29.98 in Calm     92% 0 in meteobridge W/m2
22:34 65.1 °F 63 °F 29.98 in Calm     93% 0 in meteobridge W/m2
22:39 64.9 °F 62.8 °F 29.98 in Calm     93% 0 in meteobridge W/m2
22:44 64.9 °F 62.8 °F 29.98 in Calm     93% 0 in meteobridge W/m2
22:49 64.8 °F 62.6 °F 29.98 in Calm     93% 0 in meteobridge W/m2
22:54 64.8 °F 62.6 °F 29.98 in Calm     93% 0 in meteobridge W/m2
22:59 64.6 °F 62.8 °F 29.98 in Calm     94% 0 in meteobridge W/m2
23:04 64.4 °F 62.6 °F 29.99 in Calm     94% 0 in meteobridge W/m2
23:09 64 °F 62.2 °F 29.99 in Calm     94% 0 in meteobridge W/m2
23:14 64 °F 62.2 °F 29.99 in Calm     94% 0 in meteobridge W/m2
23:19 64 °F 62.6 °F 29.99 in Calm     95% 0 in meteobridge W/m2
23:24 63.9 °F 62.4 °F 29.99 in Calm     95% 0 in meteobridge W/m2
23:29 63.9 °F 62.4 °F 29.99 in Calm     95% 0 in meteobridge W/m2
23:34 63.7 °F 62.2 °F 29.99 in Calm     95% 0 in meteobridge W/m2
23:39 63.7 °F 62.2 °F 29.99 in Calm     95% 0 in meteobridge W/m2
23:44 63.5 °F 62.1 °F 29.99 in Calm     95% 0 in meteobridge W/m2
23:49 63.3 °F 61.9 °F 29.99 in Calm     95% 0 in meteobridge W/m2
23:54 63.1 °F 61.7 °F 29.99 in Calm     95% 0 in meteobridge W/m2
23:59 63.1 °F 61.7 °F 29.99 in Calm     95% 0 in meteobridge W/m2
EllijayWeather
Compliments of Weather Underground - 2.5 mb